Concordia, KS

10:17 AM CDT on April 30, 2017 (GMT -0500)
Blosser Municipal

Weather History for KCNK - December, 2013

Change the Weather History Date:

Monday, December 30, 2013

  Actual Average Record
Temperature  
Mean Temperature 28 °F 28 °F  
Max Temperature 48 °F 38 °F 70 °F (2004)
Min Temperature 8 °F 19 °F -9 °F (1968)
Degree Days  
Heating Degree Days 37 37  
Month to date heating degree days 1142 1048  
Since 1 July heating degree days 2198 2140  
Cooling Degree Days 0 0  
Month to date cooling degree days 0 0  
Year to date cooling degree days 1359 1349  
Moisture  
Dew Point 11 °F    
Average Humidity 53    
Maximum Humidity 69    
Minimum Humidity 37    
Precipitation  
Precipitation 0.00 in 0.01 in 0.77 in (2006)
Month to date precipitation 0.54 0.83  
Year to date precipitation 27.19 27.87  
Snow  
Snow 0.00 in 0.20 in 3.30 in (1978)
Month to date snowfall 6.3 3.7  
Year to date snowfall 26.6 20.1  
Since 1 July snowfall 6.3 6.4  
Snow Depth 0.00 in    
Sea Level Pressure  
Sea Level Pressure 30.24 in    
Wind  
Wind Speed 10 mph (SW)    
Max Wind Speed 22 mph    
Max Gust Speed 26 mph    
Visibility 10 miles    
Events      
T = Trace of Precipitation, MM = Missing Value Source: NWS Daily Summary

Daily Weather History Graph

Daily Weather History Graph

Search for Another Location

Airport or City:

Trip Planner

Search our weather history database for the weather conditions in past years. The results will help you decide how hot, cold, wet, or windy it might be!

Date:

Astronomy

Dec. 30, 2013 Rise Set
Actual Time 7:50 AM CST 5:15 PM CST
Civil Twilight 7:20 AM CST 5:46 PM CST
Nautical Twilight 6:46 AM CST 6:19 PM CST
Astronomical Twilight 6:14 AM CST 6:52 PM CST
Moon 5:42 AM CST 3:50 PM CST
Length of Visible Light 10h 25m
Length of Day
9h 25m
Waning Crescent, 4% of the Moon is Illuminated
Dec 30
Waning Crescent
Jan 1
New
Jan 7
First Quarter
Jan 15
Full
Jan 23
Last Quarter

Hourly Weather History & Observations

Time (CST) Temp. Windchill Dew Point Humidity Pressure Visibility Wind Dir Wind Speed Gust Speed Precip Events Conditions
12:55 AM 10.9 °F 1.4 °F -2.0 °F 56% 30.31 in 10.0 mi SSE 5.8 mph - N/A   Clear
1:55 AM 12.0 °F 1.5 °F -2.0 °F 53% 30.29 in 10.0 mi SSE 6.9 mph - N/A   Clear
2:55 AM 12.9 °F -0.2 °F -0.9 °F 54% 30.27 in 10.0 mi South 10.4 mph - N/A   Clear
3:55 AM 14.0 °F 2.9 °F -2.0 °F 49% 30.27 in 10.0 mi South 8.1 mph - N/A   Partly Cloudy
4:55 AM 14.0 °F 2.0 °F -0.9 °F 52% 30.27 in 10.0 mi South 9.2 mph - N/A   Overcast
5:55 AM 15.1 °F -0.6 °F -0.9 °F 49% 30.25 in 10.0 mi South 16.1 mph - N/A   Overcast
6:55 AM 15.1 °F 0.5 °F -2.0 °F 47% 30.23 in 10.0 mi South 13.8 mph - N/A   Overcast
7:55 AM 16.0 °F 1.7 °F -0.0 °F 49% 30.22 in 10.0 mi South 13.8 mph - N/A   Overcast
8:55 AM 16.0 °F -0.9 °F 1.9 °F 54% 30.23 in 10.0 mi South 19.6 mph - N/A   Mostly Cloudy
9:55 AM 18.0 °F 2.2 °F 3.9 °F 54% 30.24 in 10.0 mi SSW 18.4 mph 23.0 mph N/A   Clear
10:55 AM 24.1 °F 11.5 °F 7.0 °F 48% 30.23 in 10.0 mi SW 15.0 mph - N/A   Clear
11:55 AM 30.0 °F 20.0 °F 10.9 °F 45% 30.20 in 10.0 mi SW 12.7 mph - N/A   Clear
12:55 PM 34.0 °F 23.8 °F 14.0 °F 44% 30.17 in 10.0 mi WSW 16.1 mph 21.9 mph N/A   Clear
1:55 PM 37.9 °F 30.5 °F 16.0 °F 41% 30.15 in 10.0 mi West 11.5 mph - N/A   Clear
2:55 PM 42.1 °F 37.1 °F 19.0 °F 40% 30.15 in 10.0 mi West 8.1 mph - N/A   Clear
3:55 PM 46.0 °F 40.6 °F 21.9 °F 39% 30.15 in 10.0 mi West 11.5 mph - N/A   Clear
4:55 PM 46.0 °F 40.2 °F 23.0 °F 40% 30.17 in 10.0 mi NW 12.7 mph - N/A   Clear
5:55 PM 41.0 °F 35.8 °F 23.0 °F 49% 30.21 in 10.0 mi NNW 8.1 mph - N/A   Clear
6:55 PM 39.0 °F 32.3 °F 23.0 °F 53% 30.23 in 10.0 mi NNW 10.4 mph - N/A   Clear
7:55 PM 37.9 °F 32.1 °F 23.0 °F 55% 30.26 in 10.0 mi North 8.1 mph - N/A   Clear
8:55 PM 32.0 °F 25.6 °F 21.9 °F 66% 30.31 in 10.0 mi NE 6.9 mph - N/A   Clear
9:55 PM 30.0 °F 25.2 °F 21.0 °F 69% 30.33 in 10.0 mi NNE 4.6 mph - N/A   Clear
10:55 PM 28.0 °F 24.2 °F 19.9 °F 72% 30.32 in 10.0 mi NE 3.5 mph - N/A   Clear
11:55 PM 27.0 °F - 19.0 °F 72% 30.33 in 10.0 mi Calm Calm - N/A   Clear